Weather History for Guymon, OK

Change the Weather History Date:

Wednesday, September 18, 2013

  Actual Average Record
Temperature  
Mean Temperature 80 °F 70 °F  
Max Temperature 91 °F 84 °F 101 °F (2005)
Min Temperature 68 °F 55 °F 44 °F (2012)
Degree Days  
Heating Degree Days 0 1  
Month to date heating degree days 0 8  
Since 1 July heating degree days 0 9  
Cooling Degree Days 15 6  
Month to date cooling degree days 217 154  
Year to date cooling degree days 1768 1403  
Growing Degree Days 29 (Base 50)    
Moisture  
Dew Point 62 °F    
Average Humidity 59    
Maximum Humidity 81    
Minimum Humidity 37    
Precipitation  
Precipitation 0.00 in 0.06 in 0.25 in (2002)
Month to date precipitation 2.10 1.11  
Year to date precipitation 12.65 15.88  
Snow  
Snow 0.00 in - - ()
Month to date snowfall 0.0  
Since 1 July snowfall 0.0  
Since 1 September snowfall 0.0  
Snow Depth 0.00 in    
Sea Level Pressure  
Sea Level Pressure 29.74 in    
Wind  
Wind Speed 21 mph (SSW)    
Max Wind Speed 31 mph    
Max Gust Speed 39 mph    
Visibility 10 miles    
Events      
T = Trace of Precipitation, MM = Missing Value Source: NWS Daily Summary

Daily Weather History Graph

Daily Weather History Graph

Search for Another Location

Airport:

Trip Planner

Search our weather history database for the weather conditions in past years. The results will help you decide how hot, cold, wet, or windy it might be!

Date:

Astronomy

Sep. 18, 2013 Rise Set
Actual Time 7:30 AM CDT 7:48 PM CDT
Civil Twilight 7:05 AM CDT 8:14 PM CDT
Nautical Twilight 6:34 AM CDT 8:44 PM CDT
Astronomical Twilight 6:03 AM CDT 9:15 PM CDT
Moon 7:13 PM CDT (9/18) 6:35 AM CDT (9/18)
Length of Visible Light 13h 09m
Length of Day
12h 17m
Waxing Gibbous, 99% of the Moon is Illuminated
Sep 18
Waxing Gibbous
Sep 19
Full
Sep 26
Last Quarter
Oct 4
New
Oct 11
First Quarter

Hourly Weather History & Observations

Time (CDT) Temp. Heat Index Dew Point Humidity Pressure Visibility Wind Dir Wind Speed Gust Speed Precip Events Conditions
12:53 AM 70.0 °F - 63.0 °F 78% 29.82 in 10.0 mi South 15.0 mph - N/A   Clear
1:53 AM 70.0 °F - 63.0 °F 78% 29.81 in 10.0 mi South 18.4 mph 26.5 mph N/A   Clear
2:53 AM 70.0 °F - 62.1 °F 76% 29.79 in 10.0 mi SSW 19.6 mph - N/A   Clear
3:53 AM 69.1 °F - 62.1 °F 78% 29.79 in 10.0 mi SSW 17.3 mph - N/A   Clear
4:53 AM 69.1 °F - 63.0 °F 81% 29.77 in 10.0 mi SSW 21.9 mph 26.5 mph N/A   Clear
5:53 AM 68.0 °F - 62.1 °F 81% 29.77 in 10.0 mi SSW 17.3 mph - N/A   Clear
6:53 AM 68.0 °F - 62.1 °F 81% 29.78 in 10.0 mi SSW 15.0 mph - N/A   Clear
7:53 AM 68.0 °F - 62.1 °F 81% 29.78 in 10.0 mi SSW 19.6 mph - N/A   Clear
8:53 AM 71.1 °F - 63.0 °F 75% 29.80 in 10.0 mi SSW 20.7 mph 25.3 mph N/A   Clear
9:53 AM 75.0 °F - 63.0 °F 66% 29.80 in 10.0 mi SSW 20.7 mph 31.1 mph N/A   Clear
10:53 AM 78.1 °F - 63.0 °F 60% 29.78 in 10.0 mi SSW 27.6 mph 34.5 mph N/A   Clear
11:53 AM 82.0 °F 83.4 °F 64.0 °F 54% 29.76 in 10.0 mi SSW 20.7 mph 29.9 mph N/A   Clear
12:53 PM 84.9 °F 85.9 °F 63.0 °F 48% 29.73 in 10.0 mi SSW 25.3 mph 31.1 mph N/A   Clear
1:53 PM 87.1 °F 87.8 °F 63.0 °F 44% 29.70 in 10.0 mi SSW 27.6 mph 35.7 mph N/A   Clear
2:53 PM 89.1 °F 88.8 °F 60.1 °F 38% 29.67 in 10.0 mi SSW 26.5 mph 39.1 mph N/A   Clear
3:53 PM 90.0 °F 89.1 °F 59.0 °F 35% 29.66 in 10.0 mi SSW 25.3 mph 33.4 mph N/A   Clear
4:53 PM 90.0 °F 89.1 °F 59.0 °F 35% 29.65 in 10.0 mi SSW 27.6 mph 34.5 mph N/A   Clear
5:53 PM 89.1 °F 88.8 °F 60.1 °F 38% 29.65 in 10.0 mi South 19.6 mph 29.9 mph N/A   Partly Cloudy
6:53 PM 84.0 °F 84.4 °F 61.0 °F 46% 29.65 in 10.0 mi South 23.0 mph 29.9 mph N/A   Clear
7:53 PM 81.0 °F 81.7 °F 61.0 °F 50% 29.68 in 10.0 mi South 15.0 mph 23.0 mph N/A   Clear
8:53 PM 77.0 °F - 62.1 °F 60% 29.70 in 10.0 mi South 12.7 mph - N/A   Clear
9:53 PM 75.9 °F - 62.1 °F 62% 29.72 in 10.0 mi South 15.0 mph - N/A   Clear
10:53 PM 77.0 °F - 61.0 °F 58% 29.72 in 10.0 mi South 18.4 mph 24.2 mph N/A   Clear
11:53 PM 75.9 °F - 61.0 °F 60% 29.73 in 10.0 mi South 17.3 mph 25.3 mph N/A   Clear